STARLINK-5099, 54009

Orbit data source: Space-Track

STARLINK-5099, 54009 is a payload satellite owned by SpaceX/Seattle (US) in LEO that was launched on Wed, 05 Oct 2022 UTC via an FALCON 9 launch vehicle from the Air Force Western Test Range (AFWTR). Payload-class satellites include a variety of spacecraft equipped with specific instruments for various scientific and technological missions. These include communications satellites like Starlink; space stations such as the ISS; scientific satellites like the Hubble; Earth observation satellites from companies like Planet Labs, Umbra, and HawkEye 360; GPS; miniature CubeSats for education and research; and military/defense satellites.

Loading next visibility...
Identifier
54009, 2022-125AX
Orbit
LEO
Country
Flag of USUS
Related business
Manufacturer
SpaceX/Seattle
Mission
Operational Commercial Communications
Bus & Motor
STARLINK, Unknown motor
Mass
305 kg wet, ~290 kg dry
Launch date (UTC)
2022-10-05 (4 years ago)
Launch vehicle
FALCON 9
Launch site
Air Force Western Test Range (AFWTR)
Object type
Payload
Rocket body
Debris
Shape & HBR
Box + 1 Pan, 10.1 m
Radar Cross Section
13.562 m², Large (>1 m²)

Expand to show TLE details & history
Last TLE update: 3 days ago

TLE from 3 days ago
0 STARLINK-5099
1 54009U 22125AX  26170.27216453 -.00000335  00000-0 -29387-5 0  9993
2 54009  53.1628 117.5973 0001436  96.1144 264.0011 15.08832176204806
Epoch: 2026-06-19T06:31Z
TLE epoch observation values (Epoch: 2026-06-19T06:31:55.015Z)
Latitude
-0.00003°
Longitude
112.11453°
Altitude
540.763 km
Speed
7.593 km/s
True Right ascension
07h 50m 23s
True Declination
0° 00' 00"
Sunlit
Object was in daylight at epoch
Visualization orbit readout
Latitude
Unknown
Longitude
Unknown
Altitude
Unknown
Speed
Unknown
Apparent Right ascension
Unknown
Apparent Declination
Unknown
Sunlit
N/A
Visualization observer readout
Local Sidereal Time
23:08:47
Azimuth
Unknown
Elevation
Unknown
Doppler factor
Unknown
Orbital elements
Apogee altitude
541.014 km
Perigee altitude
539.028 km
Semi-major axis
6,918.158 km
Eccentricity
0.00014
Inclination
53.1628°
RAAN
117.5973°
Arg. of periapsis
96.1144°
True anomaly
263.98474°
Mean anomaly
264.0011°
Eccentric anomaly
263.99292°
Mean motion
3.77188 °/min
Orbital period
95.44 mins
BSTAR
-0.0000029387
Loading maneuver chart data...
Computing Atmospheric mass density...

Documentation

Showing up to 5 results
|